Location: Newark
(34.1333°N, 7.9667°W)
Time: 05:53:41
(UTC+00:00)

Transit 2A - Pass Details

Date: 19 June 2021
Orbit: 598 x 960 km, 66.7° (Epoch: 01 August)

Event Time Altitude Azimuth Distance (km) Brightness Sun altitude
Rises 02:59:15 0° 325° (NW) 3,130 9.4 -22.8°
Reaches altitude 10° 03:01:35 10° 319° (NW) 2,262 8.6 -22.5°
Enters shadow 03:06:22 44° 252° (WSW) 1,100 6.4 -21.9°
Maximum altitude 03:06:29 44° 248° (WSW) 1,101 - -21.9°
Drops below altitude 10° 03:11:52 10° 178° (S) 2,482 - -21.2°
Sets 03:14:33 0° 172° (S) 3,469 - -20.8°
